Tracking 29892 objects as of 21-Nov-2024
HD Live streaming from Space Station
objects crossing your sky now

THOR ABLESTAR DEB

Track THOR ABLESTAR DEB now!
10-day predictions


NORAD ID: 1522
Int'l Code: 1965-065L
Perigee: 1,085.0 km
Apogee: 1,194.2 km
Inclination: 90.1 °
Period: 108.0 minutes
Semi major axis: 7510 km
RCS: 0.4975 m2 (medium)
Launch date: August 13, 1965
Source: United States (US)
Launch site: AIR FORCE WESTERN TEST RANGE (AFWTR)

Note: This is SATELLITE DEBRIS
Your satellite tracking list
Your tracking list is empty




NASA's NSSDC Master Catalog

Two Line Element Set (TLE):
1  1522U 65065L   24325.92047623  .00000079  00000-0  13948-3 0  9995
2  1522  90.1008 121.6866 0072696  58.8737  98.8932 13.33787975883784
Source of the keplerian elements: AFSPC